| time (UTC) | temp C | wind direction | speed KPH | gust KPH | rain 1hr cm | rain 24hr cm | rain mn cm | humidity % | barometer mb |
| 20260505213008 | 10 | 65 | 19.3 | 27.4 | 0.00 | 0.00 | 0.00 | 74 | 1009.1 |
| 20260505211602 | 10 | 51 | 17.7 | 32.2 | 0.00 | 0.00 | 0.00 | 74 | 1009.6 |
| 20260505210103 | 10 | 60 | 22.5 | 37.0 | 0.00 | 0.00 | 0.00 | 74 | 1008.9 |
| 20260505204503 | 10 | 42 | 25.7 | 38.6 | 0.00 | 0.00 | 0.00 | 74 | 1008.9 |
| 20260505203103 | 10 | 57 | 22.5 | 33.8 | 0.00 | 0.00 | 0.00 | 76 | 1008.9 |
| 20260505201503 | 10 | 46 | 25.7 | 40.2 | 0.00 | 0.00 | 0.00 | 75 | 1008.8 |
| 20260505200003 | 11 | 46 | 25.7 | 43.5 | 0.00 | 0.00 | 0.00 | 74 | 1008.7 |
| 20260505194602 | 10 | 36 | 27.4 | 40.2 | 0.00 | 0.00 | 0.00 | 77 | 1008.5 |
| 20260505193002 | 10 | 49 | 22.5 | 38.6 | 0.00 | 0.00 | 0.00 | 77 | 1008.9 |
| 20260505191609 | 10 | 52 | 19.3 | 40.2 | 0.00 | 0.00 | 0.00 | 75 | 1008.7 |
| 20260505190059 | 11 | 42 | 19.3 | 37.0 | 0.00 | 0.00 | 0.00 | 73 | 1008.7 |
| 20260505184604 | 11 | 49 | 29.0 | 40.2 | 0.00 | 0.00 | 0.00 | 71 | 1008.7 |
| 20260505183003 | 11 | 48 | 19.3 | 37.0 | 0.00 | 0.00 | 0.00 | 71 | 1008.1 |
| 20260505181602 | 10 | 55 | 29.0 | 43.5 | 0.00 | 0.00 | 0.00 | 72 | 1008.1 |
| 20260505174503 | 10 | 74 | 30.6 | 41.8 | 0.00 | 0.00 | 0.00 | 77 | 1007.7 |
| 20260505173107 | 10 | 65 | 27.4 | 53.1 | 0.00 | 0.00 | 0.00 | 79 | 1007.6 |
| 20260505170004 | 11 | 42 | 22.5 | 35.4 | 0.00 | 0.00 | 0.00 | 75 | 1007.2 |
| 20260505164603 | 11 | 55 | 22.5 | 43.5 | 0.00 | 0.00 | 0.00 | 75 | 1007.2 |
| 20260505163009 | 11 | 50 | 25.7 | 46.7 | 0.00 | 0.00 | 0.00 | 77 | 1006.5 |
| 20260505161626 | 11 | 72 | 24.1 | 43.5 | 0.00 | 0.00 | 0.00 | 78 | 1006.2 |
| 20260505153105 | 11 | 31 | 20.9 | 43.5 | 0.00 | 0.00 | 0.00 | 79 | 1005.3 |
| 20260505151502 | 11 | 44 | 22.5 | 38.6 | 0.00 | 0.00 | 0.00 | 79 | 1004.7 |
| 20260505124603 | 13 | 36 | 20.9 | 35.4 | 0.00 | 0.00 | 0.00 | 81 | 1002.3 |
| 20260505123003 | 14 | 37 | 16.1 | 35.4 | 0.00 | 0.00 | 0.00 | 81 | 1001.6 |
| 20260505121602 | 15 | 43 | 20.9 | 33.8 | 0.00 | 0.00 | 0.00 | 82 | 1000.7 |
| 20260505120124 | 16 | 57 | 20.9 | 33.8 | 0.00 | 0.00 | 0.00 | 80 | 1000.1 |
| 20260505114503 | 17 | 70 | 22.5 | 33.8 | 0.00 | 0.00 | 0.00 | 78 | 1000.1 |
| 20260505113102 | 18 | 38 | 17.7 | 32.2 | 0.00 | 0.00 | 0.00 | 75 | 999.7 |
| 20260505111503 | 18 | 69 | 16.1 | 29.0 | 0.00 | 0.00 | 0.00 | 76 | 999.6 |
| 20260505101604 | 18 | 63 | 17.7 | 29.0 | 0.00 | 0.00 | 0.00 | 80 | 999.3 |
| 20260505100104 | 18 | 61 | 14.5 | 24.1 | 0.00 | 0.00 | 0.00 | 81 | 998.8 |
| 20260505094502 | 18 | 62 | 14.5 | 29.0 | 0.00 | 0.00 | 0.00 | 82 | 998.7 |
| 20260505093103 | 18 | 66 | 11.3 | 22.5 | 0.00 | 0.00 | 0.00 | 83 | 998.3 |
| 20260505091508 | 18 | 86 | 12.9 | 19.3 | 0.00 | 0.00 | 0.00 | 84 | 998.4 |
| 20260505090010 | 18 | 65 | 11.3 | 19.3 | 0.00 | 0.00 | 0.00 | 85 | 997.9 |
| 20260505084603 | 18 | 86 | 12.9 | 19.3 | 0.00 | 0.00 | 0.00 | 85 | 997.5 |
| 20260505081607 | 18 | 97 | 14.5 | 22.5 | 0.00 | 0.00 | 0.00 | 86 | 997.4 |
| 20260505080104 | 17 | 106 | 11.3 | 17.7 | 0.00 | 0.00 | 0.00 | 86 | 997.5 |
| 20260505074503 | 17 | 98 | 8.0 | 14.5 | 0.00 | 0.00 | 0.00 | 86 | 997.7 |
| 20260505073112 | 17 | 106 | 11.3 | 16.1 | 0.00 | 0.00 | 0.00 | 85 | 997.7 |
| 20260505071506 | 17 | 101 | 9.7 | 14.5 | 0.00 | 0.00 | 0.00 | 85 | 997.8 |
| 20260505070004 | 18 | 105 | 9.7 | 14.5 | 0.00 | 0.00 | 0.00 | 84 | 997.9 |
| 20260505064604 | 18 | 117 | 11.3 | 19.3 | 0.00 | 0.00 | 0.00 | 83 | 998.2 |
| 20260505063003 | 18 | 86 | 11.3 | 17.7 | 0.00 | 0.00 | 0.00 | 82 | 998.4 |
| 20260505061612 | 19 | 91 | 11.3 | 17.7 | 0.00 | 0.00 | 0.00 | 81 | 998.4 |
| 20260505060104 | 19 | 107 | 12.9 | 19.3 | 0.00 | 0.00 | 0.00 | 81 | 998.3 |
| 20260505054628 | 20 | 90 | 12.9 | 20.9 | 0.00 | 0.00 | 0.00 | 79 | 998.5 |
| 20260505053002 | 20 | 91 | 4.8 | 16.1 | 0.00 | 0.00 | 0.00 | 78 | 998.5 |
| 20260505051603 | 20 | 88 | 8.0 | 16.1 | 0.00 | 0.00 | 0.00 | 79 | 998.4 |
| 20260505041603 | 21 | 138 | 4.8 | 14.5 | 0.00 | 0.00 | 0.00 | 77 | 998.2 |
| 20260505034506 | 20 | 113 | 0.0 | 11.3 | 0.00 | 0.00 | 0.00 | 79 | 998.3 |
| 20260505033102 | 20 | 113 | 3.2 | 9.7 | 0.00 | 0.00 | 0.00 | 78 | 998.5 |
| 20260505031509 | 20 | 113 | 8.0 | 12.9 | 0.00 | 0.00 | 0.00 | 77 | 998.6 |
| 20260505030003 | 20 | 113 | 8.0 | 12.9 | 0.00 | 0.00 | 0.00 | 76 | 998.5 |
| 20260505024603 | 21 | 112 | 8.0 | 14.5 | 0.00 | 0.00 | 0.00 | 76 | 998.4 |
| 20260505023004 | 21 | 112 | 6.4 | 14.5 | 0.00 | 0.00 | 0.00 | 74 | 998.6 |
| 20260505021503 | 21 | 111 | 8.0 | 14.5 | 0.00 | 0.00 | 0.00 | 72 | 998.5 |
| 20260505020008 | 22 | 110 | 8.0 | 14.5 | 0.00 | 0.00 | 0.00 | 71 | 998.7 |
| 20260505014610 | 22 | 113 | 8.0 | 14.5 | 0.00 | 0.00 | 0.00 | 68 | 998.7 |
| 20260505013002 | 22 | 116 | 6.4 | 12.9 | 0.00 | 0.00 | 0.00 | 66 | 998.5 |
| 20260505011604 | 23 | 117 | 8.0 | 14.5 | 0.00 | 0.00 | 0.00 | 65 | 998.3 |
| 20260505010103 | 23 | 109 | 6.4 | 17.7 | 0.00 | 0.00 | 0.00 | 62 | 998.4 |
| 20260505004502 | 24 | 145 | 9.7 | 22.5 | 0.00 | 0.00 | 0.00 | 60 | 998.5 |
| 20260505003103 | 25 | 149 | 12.9 | 25.7 | 0.00 | 0.00 | 0.00 | 59 | 998.5 |
| 20260505000118 | 25 | 145 | 14.5 | 22.5 | 0.00 | 0.00 | 0.00 | 56 | 998.6 |
| 20260504234503 | 26 | 113 | 11.3 | 25.7 | 0.00 | 0.00 | 0.00 | 54 | 998.7 |
| 20260504233115 | 26 | 140 | 14.5 | 27.4 | 0.00 | 0.00 | 0.00 | 52 | 999.0 |
| 20260504231502 | 27 | 158 | 9.7 | 27.4 | 0.00 | 0.00 | 0.00 | 50 | 999.0 |
| 20260504230002 | 27 | 143 | 14.5 | 22.5 | 0.00 | 0.00 | 0.00 | 48 | 999.2 |
| 20260504224603 | 26 | 148 | 16.1 | 22.5 | 0.00 | 0.00 | 0.00 | 49 | 999.2 |
| 20260504223003 | 27 | 169 | 14.5 | 20.9 | 0.00 | 0.00 | 0.00 | 49 | 999.4 |
| 20260504221612 | 27 | 163 | 14.5 | 20.9 | 0.00 | 0.00 | 0.00 | 48 | 999.3 |
| 20260504220002 | 27 | 146 | 11.3 | 27.4 | 0.00 | 0.00 | 0.00 | 47 | 999.5 |